CZ-3A R/B, 33464

Orbit data source: Space-Track

CZ-3A R/B, 33464 is space debris in HEO originally from a launch on Tue, 23 Dec 2008 UTC launched from the Xichang Space Center, China (XSC). Debris objects in space refer to the collection of defunct objects orbiting the Earth. Examples of debris include non-operational satellites, rocket bodies, and fragments generated from explosions, collisions, or faulty payload assembly.

Loading next visibility...
Identifier
33464, 2008-066B
Orbit
HEO
Country
Flag of CNCN / PRC
Related business
Manufacturer
CALT
Mission
Spacecraft
Bus & Motor
CZ-3A STAGE 3, Unknown motor
Mass
~2,800 kg wet, ~2,800 kg dry
Launch date (UTC)
2008-12-23 (17 years ago)
Launch vehicle
Unknown
Launch site
Xichang Space Center, China (XSC)
Object type
Payload
Rocket body
Debris
Shape & HBR
Cyl + 1 Nozzle, 6.2 m
Radar Cross Section
32.751 m², Large (>1 m²)

Expand to show TLE details & history
Last TLE update: 2 days ago

TLE from 2 days ago
0 CZ-3A R/B
1 33464U 08066B   26171.14702005  .00000061  00000-0  42772-3 0  9998
2 33464  24.6166 222.0136 7148067 312.9064   6.1034  2.34390422148287
Epoch: 2026-06-20T03:31Z
TLE epoch observation values (Epoch: 2026-06-20T03:31:42.532Z)
Latitude
0.00055°
Longitude
-99.17515°
Altitude
1,524.612 km
Speed
9.177 km/s
True Right ascension
14h 48m 28s
True Declination
0° 00' 02"
Sunlit
Object was in full shadow at epoch
Visualization orbit readout
Latitude
Unknown
Longitude
Unknown
Altitude
Unknown
Speed
Unknown
Apparent Right ascension
Unknown
Apparent Declination
Unknown
Sunlit
N/A
Visualization observer readout
Local Sidereal Time
23:07:50
Azimuth
Unknown
Elevation
Unknown
Doppler factor
Unknown
Orbital elements
Apogee altitude
34,679.716 km
Perigee altitude
450.285 km
Semi-major axis
23,943.137 km
Eccentricity
0.71481
Inclination
24.6166°
RAAN
222.0136°
Arg. of periapsis
312.9064°
True anomaly
47.4814°
Mean anomaly
6.1034°
Eccentric anomaly
20.33728°
Mean motion
0.58583 °/min
Orbital period
614.51 mins
BSTAR
0.00042772
Loading maneuver chart data...
Computing Atmospheric mass density...
Loading historical data...
Loading historical data...
Loading historical data...
Loading historical data...
Loading historical data...
Loading historical data...
Loading historical data...
Other satellites on launch #66 in the year 2008 (2008-12-23 UTC)

Documentation

Showing up to 5 results
|